W3ADC Weather Reports


Display with metric or nautical units.
time (UTC)temp
F
wind
direction
speed
MPH
gust
MPH
rain 1hr
in
rain 24hr
in
rain mn
in
humidity
%
barometer
mb
20260510011040 58 0 0.0 2.0 0.00 0.08 0.08 79 1008.7
20260510010541 58 0 0.0 2.0 0.00 0.08 0.08 78 1008.6
20260510005540 58 0 0.0 4.0 0.00 0.08 0.08 77 1008.4
20260510005040 59 68 0.0 4.0 0.00 0.08 0.08 77 1008.4
20260510004557 59 68 1.0 4.0 0.00 0.08 0.08 76 1008.3
20260510004040 59 90 0.0 2.0 0.00 0.08 0.08 76 1008.3
20260510003540 59 0 0.0 2.0 0.00 0.08 0.08 75 1008.3
20260510003045 60 86 0.0 2.0 0.00 0.08 0.08 75 1008.3
20260510002539 60 0 0.0 3.0 0.00 0.08 0.08 74 1008.3
20260510002040 60 0 0.0 3.0 0.00 0.08 0.08 73 1008.2
20260510001546 60 119 0.0 2.0 0.00 0.08 0.08 73 1008.1
20260510001043 61 123 0.0 2.0 0.00 0.08 0.08 72 1008.1
20260510000542 61 0 0.0 3.0 0.00 0.08 0.08 72 1008.2
20260510000055 61 0 1.0 3.0 0.00 0.08 0.08 72 1008.1
20260509235539 61 128 0.0 3.0 0.00 0.08 0.08 71 1008.0
20260509235039 61 165 1.0 6.0 0.00 0.08 0.08 71 1008.0
20260509234604 62 115 1.0 6.0 0.00 0.08 0.08 71 1008.0
20260509234044 62 131 1.0 5.0 0.00 0.08 0.08 70 1007.9
20260509233541 62 0 1.0 4.0 0.00 0.08 0.08 70 1008.0
20260509233050 62 138 1.0 4.0 0.00 0.08 0.08 70 1008.0
20260509232543 62 143 1.0 6.0 0.00 0.08 0.08 70 1008.0
20260509232042 62 126 1.0 6.0 0.00 0.08 0.08 69 1008.0
20260509231550 62 0 2.0 4.0 0.00 0.08 0.08 69 1008.0
20260509231042 63 0 1.0 4.0 0.00 0.08 0.08 69 1008.1
20260509230542 63 136 1.0 4.0 0.00 0.08 0.08 68 1008.1
20260509230054 63 0 1.0 4.0 0.00 0.08 0.08 68 1008.1
20260509225541 63 144 1.0 4.0 0.00 0.08 0.08 68 1007.8
20260509225040 63 126 1.0 6.0 0.00 0.08 0.08 68 1008.0
20260509224551 63 0 2.0 6.0 0.00 0.08 0.08 67 1008.0
20260509224043 63 120 1.0 4.0 0.00 0.08 0.08 67 1008.1
20260509223541 63 105 1.0 4.0 0.00 0.08 0.08 66 1008.1
20260509223050 63 0 0.0 4.0 0.00 0.08 0.08 66 1008.2
20260509222541 63 144 1.0 4.0 0.00 0.08 0.08 66 1008.2
20260509222040 63 96 1.0 4.0 0.00 0.08 0.08 66 1008.2
20260509221602 63 194 1.0 4.0 0.00 0.08 0.08 66 1008.2
20260509221040 63 72 1.0 4.0 0.00 0.08 0.08 65 1008.2
20260509220544 63 83 1.0 4.0 0.00 0.08 0.08 65 1008.1
20260509215541 63 76 2.0 5.0 0.00 0.08 0.08 67 1008.0
20260509215042 63 79 0.0 6.0 0.00 0.08 0.08 65 1008.0
20260509214553 63 134 1.0 6.0 0.00 0.08 0.08 66 1008.1
20260509214041 63 92 1.0 4.0 0.00 0.08 0.08 67 1008.2
20260509213540 63 0 1.0 4.0 0.00 0.08 0.08 64 1008.2
20260509213050 63 107 0.0 3.0 0.00 0.08 0.08 66 1008.3
20260509212544 62 0 0.0 3.0 0.00 0.08 0.08 67 1008.3
20260509212043 62 82 1.0 3.0 0.00 0.08 0.08 66 1008.5
20260509211547 62 88 1.0 3.0 0.00 0.08 0.08 67 1008.5
20260509211043 62 119 0.0 3.0 0.00 0.08 0.08 67 1008.5
20260509210544 62 119 0.0 3.0 0.00 0.08 0.08 67 1008.6
20260509210058 62 0 0.0 3.0 0.00 0.08 0.08 66 1008.6
20260509205541 62 84 0.0 4.0 0.00 0.08 0.08 66 1008.6
20260509205041 62 84 1.0 4.0 0.00 0.08 0.08 67 1008.5
20260509204553 62 92 1.0 4.0 0.00 0.08 0.08 66 1008.5
20260509204041 62 134 1.0 4.0 0.00 0.08 0.08 66 1008.4
20260509203541 62 109 1.0 4.0 0.00 0.08 0.08 66 1008.4
20260509203055 62 114 1.0 7.0 0.00 0.08 0.08 66 1008.4
20260509202541 63 138 1.0 7.0 0.00 0.08 0.08 67 1008.4
20260509202043 63 0 2.0 7.0 0.00 0.08 0.08 65 1008.5
20260509201548 63 88 1.0 5.0 0.00 0.08 0.08 65 1008.5
20260509201041 63 131 2.0 5.0 0.00 0.08 0.08 65 1008.5
20260509200542 63 148 2.0 6.0 0.00 0.08 0.08 64 1008.6
20260509200050 64 105 1.0 6.0 0.00 0.08 0.08 65 1008.5
20260509195541 64 0 1.0 6.0 0.00 0.08 0.08 63 1008.6
20260509195043 64 128 0.0 6.0 0.00 0.08 0.08 63 1008.6
20260509194546 64 0 2.0 6.0 0.00 0.08 0.08 61 1008.6
20260509194042 65 144 1.0 4.0 0.00 0.08 0.08 61 1008.7
20260509193544 65 155 1.0 4.0 0.00 0.08 0.08 60 1008.6
20260509193059 65 172 0.0 3.0 0.00 0.08 0.08 59 1008.7
20260509192540 64 176 0.0 4.0 0.00 0.08 0.08 59 1008.6
20260509192050 64 0 0.0 4.0 0.00 0.08 0.08 58 1008.7
20260509191610 65 219 1.0 4.0 0.00 0.08 0.08 62 1008.8
20260509191041 65 208 0.0 4.0 0.00 0.08 0.08 61 1008.7
20260509190543 64 180 1.0 4.0 0.00 0.08 0.08 60 1008.8
20260509190105 63 303 1.0 3.0 0.00 0.08 0.08 61 1008.9
20260509185544 63 0 0.0 2.0 0.00 0.08 0.08 65 1008.9
20260509185041 63 0 0.0 5.0 0.00 0.08 0.08 61 1009.0
20260509184544 62 138 1.0 5.0 0.00 0.08 0.08 60 1008.9
20260509184044 63 87 1.0 4.0 0.00 0.08 0.08 62 1008.9
20260509183541 63 137 1.0 4.0 0.00 0.08 0.08 63 1009.0
20260509183047 62 0 0.0 3.0 0.00 0.08 0.08 64 1009.0
20260509182545 62 134 1.0 6.0 0.00 0.08 0.08 68 1009.1
20260509182040 62 0 1.0 7.0 0.00 0.08 0.08 67 1009.3
20260509181547 62 102 2.0 7.0 0.00 0.08 0.08 70 1009.4
20260509181040 61 116 3.0 6.0 0.00 0.08 0.08 67 1009.6
20260509180541 61 0 1.0 5.0 0.00 0.08 0.08 68 1009.9
20260509180052 60 0 1.0 5.0 0.00 0.08 0.08 74 1009.9
20260509175540 60 207 1.0 8.0 0.00 0.08 0.08 73 1009.8
20260509175041 59 167 3.0 8.0 0.00 0.08 0.08 73 1010.0
20260509174549 59 196 1.0 4.0 0.00 0.08 0.08 75 1010.1
20260509174040 59 201 1.0 4.0 0.00 0.08 0.08 74 1009.9
20260509173539 58 89 2.0 4.0 0.00 0.08 0.08 74 1010.0
20260509173056 58 155 1.0 4.0 0.00 0.08 0.08 75 1010.1
20260509172541 58 0 1.0 4.0 0.00 0.08 0.08 75 1010.1
20260509172041 58 211 0.0 5.0 0.00 0.08 0.08 75 1010.2
20260509171604 58 137 2.0 5.0 0.00 0.08 0.08 75 1010.0
20260509171040 58 96 2.0 5.0 0.00 0.08 0.08 75 1009.9
20260509170541 58 86 1.0 4.0 0.00 0.08 0.08 75 1010.0
20260509170048 58 117 1.0 4.0 0.00 0.08 0.08 75 1010.1
20260509165540 58 105 0.0 4.0 0.00 0.08 0.08 75 1010.2
20260509165040 57 129 2.0 4.0 0.00 0.08 0.08 76 1010.0
20260509164552 57 91 0.0 3.0 0.00 0.08 0.08 74 1010.1
20260509164044 57 0 0.0 3.0 0.00 0.08 0.08 74 1010.0
20260509163547 57 0 1.0 4.0 0.00 0.08 0.08 74 1010.1
20260509163058 57 0 1.0 4.0 0.00 0.08 0.08 74 1010.2
20260509162544 57 0 0.0 4.0 0.00 0.08 0.08 74 1010.2
20260509162041 57 346 2.0 4.0 0.00 0.08 0.08 74 1010.2
20260509161549 58 191 0.0 4.0 0.00 0.08 0.08 74 1010.6
20260509161042 58 173 0.0 4.0 0.00 0.08 0.08 72 1010.6
20260509160541 58 193 0.0 4.0 0.00 0.08 0.08 74 1010.5
20260509160048 57 88 1.0 4.0 0.00 0.08 0.08 75 1010.5
20260509155540 57 160 0.0 5.0 0.00 0.08 0.08 80 1010.5
20260509155041 56 0 1.0 5.0 0.00 0.08 0.08 81 1010.6
20260509154549 56 111 1.0 6.0 0.00 0.08 0.08 82 1010.6
20260509154041 55 0 1.0 7.0 0.00 0.08 0.08 85 1010.7
20260509153541 55 131 2.0 7.0 0.01 0.08 0.08 86 1010.8
20260509153053 54 204 3.0 7.0 0.01 0.08 0.08 87 1010.7
20260509152541 54 202 2.0 4.0 0.02 0.08 0.08 88 1010.7
20260509152041 54 146 0.0 3.0 0.03 0.08 0.08 89 1010.7
20260509151552 53 148 0.0 4.0 0.04 0.08 0.08 89 1010.4
20260509151041 53 113 1.0 4.0 0.06 0.08 0.08 89 1010.3
20260509150540 53 153 1.0 3.0 0.07 0.08 0.08 88 1010.5
20260509150051 52 107 1.0 6.0 0.08 0.08 0.08 88 1010.3
20260509145541 52 136 1.0 6.0 0.08 0.08 0.08 88 1010.5
20260509145040 52 160 0.0 3.0 0.08 0.08 0.08 87 1010.8
20260509144553 52 146 1.0 3.0 0.08 0.08 0.08 86 1010.6
20260509144040 53 150 1.0 4.0 0.08 0.08 0.08 85 1010.4
20260509143541 52 80 1.0 4.0 0.07 0.07 0.07 83 1010.2
20260509143050 53 33 1.0 3.0 0.07 0.07 0.07 82 1010.2
20260509142540 53 53 1.0 3.0 0.06 0.06 0.06 81 1010.3
20260509142040 54 0 0.0 2.0 0.05 0.05 0.05 79 1010.6
20260509141551 54 0 0.0 3.0 0.04 0.04 0.04 78 1010.8
20260509141041 55 196 1.0 3.0 0.02 0.02 0.02 75 1010.9
20260509140540 55 205 0.0 2.0 0.01 0.01 0.01 74 1010.9
20260509140050 56 0 0.0 2.0 0.00 0.00 0.00 71 1010.6
20260509135538 56 0 0.0 4.0 0.00 0.00 0.00 68 1010.5
20260509135041 56 193 0.0 5.0 0.00 0.00 0.00 68 1010.6
20260509134557 56 0 0.0 5.0 0.00 0.00 0.00 67 1010.5
20260509134045 56 210 2.0 5.0 0.00 0.00 0.00 66 1010.7
20260509133541 57 198 0.0 8.0 0.00 0.00 0.00 65 1010.5
20260509133051 57 201 2.0 8.0 0.00 0.00 0.00 64 1010.5
20260509132541 57 198 2.0 8.0 0.00 0.00 0.00 63 1010.3
20260509132044 57 211 0.0 8.0 0.00 0.00 0.00 65 1010.3
20260509131601 57 215 4.0 8.0 0.00 0.00 0.00 63 1010.2
20260509131040 56 235 2.0 6.0 0.00 0.00 0.00 63 1010.0
20260509130541 56 144 2.0 6.0 0.00 0.00 0.00 63 1009.9
20260509130059 56 189 1.0 7.0 0.00 0.00 0.00 63 1010.1
20260509125544 56 184 3.0 7.0 0.00 0.00 0.00 64 1010.2
20260509125044 56 220 2.0 6.0 0.00 0.00 0.00 63 1010.2
20260509124550 56 181 2.0 7.0 0.00 0.00 0.00 63 1010.2
20260509124043 56 205 1.0 7.0 0.00 0.00 0.00 63 1010.1
20260509123540 55 201 1.0 4.0 0.00 0.00 0.00 64 1010.2
20260509123057 55 0 0.0 4.0 0.00 0.00 0.00 63 1010.0
20260509122540 55 197 2.0 4.0 0.00 0.00 0.00 63 1010.1
20260509122041 55 180 2.0 4.0 0.00 0.00 0.00 63 1010.0
20260509121551 55 176 1.0 4.0 0.00 0.00 0.00 63 1010.0
20260509121048 55 192 1.0 4.0 0.00 0.00 0.00 62 1010.1
20260509120541 55 0 1.0 3.0 0.00 0.00 0.00 62 1010.1
20260509120045 55 232 0.0 2.0 0.00 0.00 0.00 62 1010.1
20260509115540 55 0 0.0 2.0 0.00 0.00 0.00 63 1010.1
20260509115040 55 231 0.0 2.0 0.00 0.00 0.00 63 1010.0
20260509114605 55 0 0.0 2.0 0.00 0.00 0.00 63 1010.1
20260509114040 55 233 0.0 2.0 0.00 0.00 0.00 62 1010.0
20260509113541 55 312 0.0 2.0 0.00 0.00 0.00 62 1009.8
20260509113053 55 0 0.0 2.0 0.00 0.00 0.00 62 1009.8
20260509112543 55 0 0.0 2.0 0.00 0.00 0.00 62 1009.9
20260509112043 55 206 0.0 4.0 0.00 0.00 0.00 62 1009.7
20260509111547 55 0 1.0 5.0 0.00 0.00 0.00 63 1009.5
20260509111045 55 173 1.0 6.0 0.00 0.00 0.00 62 1009.3
20260509110540 55 142 2.0 6.0 0.00 0.00 0.00 62 1009.5
20260509110048 55 198 1.0 5.0 0.00 0.00 0.00 62 1009.4
20260509105542 55 174 1.0 5.0 0.00 0.00 0.00 62 1009.3
20260509105041 54 206 1.0 5.0 0.00 0.00 0.00 62 1009.4
20260509104553 54 212 2.0 5.0 0.00 0.00 0.00 62 1009.5
20260509104041 54 207 1.0 3.0 0.00 0.00 0.00 62 1009.5
20260509103540 54 205 1.0 3.0 0.00 0.00 0.00 63 1009.4
20260509103050 54 0 1.0 3.0 0.00 0.00 0.00 63 1009.4
20260509102541 54 207 0.0 3.0 0.00 0.00 0.00 63 1009.4
20260509102041 54 215 0.0 4.0 0.00 0.00 0.00 63 1009.3
20260509101552 54 204 1.0 6.0 0.00 0.00 0.00 63 1009.4
20260509101040 54 212 2.0 6.0 0.00 0.00 0.00 62 1009.2
20260509100540 54 182 2.0 5.0 0.00 0.00 0.00 62 1009.3
20260509100050 54 209 1.0 4.0 0.00 0.00 0.00 62 1009.2
20260509095541 54 191 1.0 2.0 0.00 0.00 0.00 62 1009.3
20260509095040 54 220 1.0 2.0 0.00 0.00 0.00 62 1009.4
20260509094612 54 225 0.0 3.0 0.00 0.00 0.00 62 1009.3
20260509094041 54 205 1.0 4.0 0.00 0.00 0.00 62 1009.4
20260509093541 54 0 0.0 5.0 0.00 0.00 0.00 62 1009.4
20260509093050 55 207 1.0 6.0 0.00 0.00 0.00 61 1009.4
20260509092543 55 205 2.0 6.0 0.00 0.00 0.00 61 1009.4
20260509092040 55 210 2.0 6.0 0.00 0.00 0.00 61 1009.3
20260509091547 55 193 2.0 6.0 0.00 0.00 0.00 61 1009.4
20260509091040 55 176 2.0 6.0 0.00 0.00 0.00 61 1009.4
20260509090541 55 190 2.0 6.0 0.00 0.00 0.00 60 1009.4
20260509090100 55 205 2.0 6.0 0.00 0.00 0.00 60 1009.5
20260509085540 55 193 1.0 4.0 0.00 0.00 0.00 60 1009.4
20260509085040 55 0 0.0 3.0 0.00 0.00 0.00 60 1009.6
20260509084558 55 214 1.0 4.0 0.00 0.00 0.00 60 1009.7
20260509084041 55 193 1.0 7.0 0.00 0.00 0.00 60 1009.7
20260509083543 55 202 2.0 7.0 0.00 0.00 0.00 59 1009.7
20260509083052 55 173 1.0 4.0 0.00 0.00 0.00 59 1009.7
20260509082540 55 221 1.0 5.0 0.00 0.00 0.00 58 1009.6
20260509082041 55 0 1.0 5.0 0.00 0.00 0.00 59 1009.6
20260509081552 56 0 0.0 6.0 0.00 0.00 0.00 59 1009.7
20260509081041 56 207 1.0 8.0 0.00 0.00 0.00 58 1009.5
20260509080540 56 213 1.0 8.0 0.00 0.00 0.00 59 1009.5
20260509080046 56 227 3.0 8.0 0.00 0.00 0.00 58 1009.5
20260509075540 56 221 2.0 8.0 0.00 0.00 0.00 58 1009.6
20260509075040 56 195 2.0 8.0 0.00 0.00 0.00 59 1009.5
20260509074551 56 203 3.0 8.0 0.00 0.00 0.00 59 1009.5
20260509074041 56 186 3.0 7.0 0.00 0.00 0.00 58 1009.5
20260509073541 56 197 2.0 8.0 0.00 0.00 0.00 59 1009.5
20260509073050 56 198 2.0 8.0 0.00 0.00 0.00 59 1009.5
20260509072544 56 183 2.0 8.0 0.00 0.00 0.00 59 1009.6
20260509072042 56 216 2.0 7.0 0.00 0.00 0.00 59 1009.7
20260509071557 56 192 2.0 7.0 0.00 0.00 0.00 59 1009.6
20260509071040 55 200 2.0 7.0 0.00 0.00 0.00 59 1009.6
20260509070541 55 228 3.0 9.0 0.00 0.00 0.00 59 1009.7
20260509070049 55 215 1.0 10.0 0.00 0.00 0.00 60 1009.7
20260509065540 55 222 2.0 10.0 0.00 0.00 0.00 59 1009.8
20260509065040 55 196 3.0 10.0 0.00 0.00 0.00 59 1009.7
20260509064549 56 219 2.0 13.0 0.00 0.00 0.00 59 1009.7
20260509064040 56 217 4.0 13.0 0.00 0.00 0.00 59 1009.8
20260509063540 56 220 3.0 9.0 0.00 0.00 0.00 59 1009.9
20260509063047 56 211 2.0 9.0 0.00 0.00 0.00 59 1009.9
20260509062540 56 213 2.0 11.0 0.00 0.00 0.00 59 1009.9
20260509062041 56 223 4.0 11.0 0.00 0.00 0.00 58 1010.0
20260509061553 56 205 4.0 11.0 0.00 0.00 0.00 58 1009.9
20260509061041 56 222 3.0 11.0 0.00 0.00 0.00 58 1009.9
20260509060542 56 202 5.0 11.0 0.00 0.00 0.00 58 1009.9
20260509060046 56 138 3.0 10.0 0.00 0.00 0.00 57 1009.7
20260509055540 57 213 5.0 11.0 0.00 0.00 0.00 57 1009.7
20260509055040 57 178 5.0 11.0 0.00 0.00 0.00 57 1009.7
20260509054605 57 137 2.0 7.0 0.00 0.00 0.00 57 1009.9
20260509054041 57 164 2.0 6.0 0.00 0.00 0.00 57 1010.0
20260509053541 57 141 2.0 6.0 0.00 0.00 0.00 57 1010.1
20260509053139 57 0 1.0 4.0 0.00 0.00 0.00 56 1010.2
20260509052543 57 196 1.0 5.0 0.00 0.00 0.00 56 1010.3
20260509052040 57 178 1.0 5.0 0.00 0.00 0.00 56 1010.4
20260509051551 57 205 1.0 5.0 0.00 0.00 0.00 55 1010.6
20260509051040 57 188 1.0 6.0 0.00 0.00 0.00 55 1010.6
20260509050541 58 201 2.0 6.0 0.00 0.00 0.00 55 1010.7
20260509050053 57 198 2.0 5.0 0.00 0.00 0.00 55 1010.8
20260509045541 57 196 1.0 8.0 0.00 0.00 0.00 55 1010.6
20260509045041 57 195 2.0 8.0 0.00 0.00 0.00 54 1010.6
20260509044549 57 178 3.0 7.0 0.00 0.00 0.00 55 1010.6
20260509044042 57 170 3.0 8.0 0.00 0.00 0.00 55 1010.6
20260509043541 57 158 3.0 8.0 0.00 0.00 0.00 56 1010.6
20260509043048 56 182 3.0 7.0 0.00 0.00 0.00 57 1010.8
20260509042541 56 199 1.0 5.0 0.00 0.00 0.00 57 1010.7
20260509042044 56 167 1.0 5.0 0.00 0.00 0.00 57 1010.7
20260509041546 56 148 0.0 4.0 0.00 0.00 0.00 57 1010.7
20260509041041 56 161 1.0 4.0 0.00 0.00 0.00 57 1010.7
20260509040540 56 138 0.0 2.0 0.00 0.00 0.00 57 1010.8
20260509040107 56 0 0.0 2.0 0.00 0.00 0.00 57 1010.9
20260509035542 56 142 0.0 2.0 0.00 0.00 0.00 57 1010.9
20260509035041 56 81 0.0 3.0 0.00 0.00 0.00 57 1010.9
20260509034609 56 81 1.0 3.0 0.00 0.00 0.00 57 1010.9
20260509034040 57 76 1.0 3.0 0.00 0.00 0.00 56 1010.9
20260509033541 57 90 2.0 3.0 0.00 0.00 0.00 55 1011.0
20260509033049 57 98 1.0 3.0 0.00 0.00 0.00 55 1011.0
20260509032544 57 180 0.0 2.0 0.00 0.00 0.00 55 1011.1
20260509032040 57 180 0.0 2.0 0.00 0.00 0.00 55 1011.1
20260509031551 57 0 0.0 1.0 0.00 0.00 0.00 55 1011.2
20260509031129 57 0 0.0 1.0 0.00 0.00 0.00 54 1011.1
20260509030541 58 0 0.0 1.0 0.00 0.00 0.00 54 1011.2
20260509030101 58 0 0.0 1.0 0.00 0.00 0.00 54 1011.1
20260509025541 58 0 0.0 1.0 0.00 0.00 0.00 54 1011.2
20260509025041 58 0 0.0 2.0 0.00 0.00 0.00 53 1011.4
20260509024554 58 177 0.0 3.0 0.00 0.00 0.00 53 1011.3
20260509024056 58 181 1.0 4.0 0.00 0.00 0.00 53 1011.3
20260509023540 58 139 1.0 4.0 0.00 0.00 0.00 56 1011.1
20260509023051 58 123 2.0 4.0 0.00 0.00 0.00 56 1011.2
20260509022542 59 115 0.0 3.0 0.00 0.00 0.00 53 1011.4
20260509022042 59 0 0.0 3.0 0.00 0.00 0.00 54 1011.5
20260509021546 59 111 1.0 3.0 0.00 0.00 0.00 53 1011.5
20260509021042 59 124 1.0 3.0 0.00 0.00 0.00 54 1011.7
20260509020541 59 130 0.0 2.0 0.00 0.00 0.00 53 1011.6
20260509020049 59 130 0.0 2.0 0.00 0.00 0.00 53 1011.6
20260509015542 59 0 0.0 2.0 0.00 0.00 0.00 53 1011.5
20260509015042 59 0 0.0 2.0 0.00 0.00 0.00 53 1011.2
20260509014553 60 0 0.0 3.0 0.00 0.00 0.00 50 1011.2
20260509014045 59 138 0.0 3.0 0.00 0.00 0.00 50 1011.0
20260509013542 59 140 1.0 3.0 0.00 0.00 0.00 50 1011.0
20260509013107 59 142 0.0 3.0 0.00 0.00 0.00 51 1011.2
20260509012541 59 142 1.0 3.0 0.00 0.00 0.00 51 1011.3
20260509012045 59 167 1.0 4.0 0.00 0.00 0.00 53 1011.3
20260509011554 59 173 1.0 4.0 0.00 0.00 0.00 52 1011.4